Location: Del Amo
(33.8464°N, 118.2104°W)
Time: 01:30:03
(UTC+00:00)

SR - Pass Details

Date: 28 September 2024
Orbit: 578 x 855 km, 66.7° (Epoch: 02 October)

Event Time Altitude Azimuth Distance (km) Brightness Sun altitude
Rises 16:54:43 0° 192° (SSW) 2,820 ? 36.3°
Reaches altitude 10° 16:57:01 10° 187° (S) 1,902 ? 36.7°
Maximum altitude 17:01:05 48° 113° (ESE) 755 ? 37.4°
Drops below altitude 10° 17:05:09 10° 38° (NE) 1,895 ? 38.1°
Sets 17:07:26 0° 33° (NNE) 2,809 ? 38.5°
